{"data":{"norad_id":68954,"epoch":"2026-05-25T04:00:03.998880Z","epoch_age_seconds":56682,"freshness":"FRESH","line1":"1 68954U 26099D   26145.16671295  .00082752  00000+0  14833-2 0  9997","line2":"2 68954  53.1592 270.6925 0000987  52.8629 294.2956 15.49249534  4968","mean_motion":15.49249534,"eccentricity":9.87e-5,"inclination_deg":53.1592,"raan_deg":270.6925,"arg_perigee_deg":52.8629,"mean_anomaly_deg":294.2956,"bstar":0.0014833,"rev_number":496,"period_min":92.948228700258,"perigee_km":418.24933818516,"apogee_km":419.59107727797,"semimajor_km":6797.0572077316,"source":"CELESTRAK","updated_at":"2026-05-25T13:38:22.072357Z"}}